N2XGL-1 Weather Reports


Display with metric or nautical units.
time (UTC)temp
F
wind
direction
speed
MPH
gust
MPH
rain 1hr
in
rain 24hr
in
rain mn
in
humidity
%
barometer
mb
20260502205443 72 135 5.0 10.0 0.00 0.00 0.00 15 1012.4
20260502204533 71 45 5.0 11.0 0.00 0.00 0.00 15 1012.5
20260502203933 72 45 3.0 6.0 0.00 0.00 0.00 16 1012.7
20260502203648 72 45 3.0 6.0 0.00 0.00 0.00 16 1012.7
20260502202758 72 68 4.0 7.0 0.00 0.00 0.00 17 1012.8
20260502201916 71 45 4.0 10.0 0.00 0.00 0.00 21 1013.0
20260502201018 73 202 2.0 4.0 0.00 0.00 0.00 22 1013.1
20260502195228 71 158 4.0 7.0 0.00 0.00 0.00 18 1013.3
20260502193418 70 68 3.0 9.0 0.00 0.00 0.00 21 1013.6
20260502192441 71 158 5.0 9.0 0.00 0.00 0.00 18 1013.8
20260502191553 70 68 4.0 11.0 0.00 0.00 0.00 18 1013.7
20260502190748 70 135 3.0 6.0 0.00 0.00 0.00 18 1014.1
20260502185858 71 180 3.0 7.0 0.00 0.00 0.00 19 1014.3
20260502184938 70 180 3.0 7.0 0.00 0.00 0.00 23 1014.5
20260502183948 70 180 2.0 5.0 0.00 0.00 0.00 21 1014.6
20260502183033 68 22 2.0 7.0 0.00 0.00 0.00 19 1014.8
20260502182233 68 135 3.0 7.0 0.00 0.00 0.00 25 1014.9
20260502181408 67 45 3.0 7.0 0.00 0.00 0.00 19 1015.1
20260502162505 64 135 2.0 5.0 0.00 0.00 0.00 24 1016.2
20260502161549 64 135 2.0 5.0 0.00 0.00 0.00 23 1016.3
20260502160708 63 158 2.0 4.0 0.00 0.00 0.00 24 1016.5
20260502152201 56 158 2.0 4.0 0.00 0.00 0.00 40 1016.9
20260502150645 53 180 2.0 4.0 0.00 0.00 0.00 43 1017.2
20260502150448 53 180 2.0 4.0 0.00 0.00 0.00 43 1017.2
20260502123353 35 0 0.0 2.0 0.00 0.00 0.00 69 1017.4
20260502122553 35 0 0.0 1.0 0.00 0.00 0.00 68 1017.4
20260502121733 36 0 0.0 1.0 0.00 0.00 0.00 67 1017.4
20260502120733 36 0 0.0 1.0 0.00 0.00 0.00 64 1017.4
20260502115931 37 0 0.0 1.0 0.00 0.00 0.00 61 1017.4
20260502115013 38 0 0.0 2.0 0.00 0.00 0.00 59 1017.4
20260502114038 38 0 0.0 1.0 0.00 0.00 0.00 58 1017.4
20260502112238 40 0 0.0 1.0 0.00 0.00 0.00 56 1017.3
20260502111241 40 45 1.0 4.0 0.00 0.00 0.00 54 1017.2
20260502110323 41 22 2.0 4.0 0.00 0.00 0.00 56 1017.3
20260502105453 41 0 3.0 5.0 0.00 0.00 0.00 55 1017.2
20260502104654 42 22 3.0 4.0 0.00 0.00 0.00 55 1017.2
20260502103733 42 22 3.0 6.0 0.00 0.00 0.00 54 1017.1
20260502102848 41 0 4.0 8.0 0.00 0.00 0.00 55 1017.1
20260502101941 41 0 3.0 7.0 0.00 0.00 0.00 55 1017.2
20260502101018 41 0 4.0 6.0 0.00 0.00 0.00 57 1017.0
20260502100239 41 0 3.0 7.0 0.00 0.00 0.00 56 1017.0
20260502100153 41 0 3.0 7.0 0.00 0.00 0.00 56 1017.0
20260502090633 43 338 1.0 4.0 0.00 0.00 0.00 52 1016.8
20260502071231 40 0 0.0 1.0 0.00 0.00 0.00 49 1017.4
20260502070233 40 292 1.0 4.0 0.00 0.00 0.00 48 1017.5
20260502065423 41 0 0.0 2.0 0.00 0.00 0.00 47 1017.5
20260502064454 41 0 0.0 1.0 0.00 0.00 0.00 46 1017.6
20260502061935 42 270 1.0 2.0 0.00 0.00 0.00 47 1017.6
20260502061808 42 270 1.0 2.0 0.00 0.00 0.00 47 1017.6
20260502061422 42 248 1.0 2.0 0.00 0.00 0.00 45 1017.5
20260502060958 42 0 0.0 1.0 0.00 0.00 0.00 46 1017.6
20260502060154 42 248 1.0 2.0 0.00 0.00 0.00 45 1017.5
20260502055228 43 270 1.0 2.0 0.00 0.00 0.00 46 1017.6
20260502054318 43 0 0.0 0.0 0.00 0.00 0.00 46 1017.5
20260502051754 44 0 0.0 0.0 0.00 0.00 0.00 45 1017.5
20260502050819 45 0 0.0 0.0 0.00 0.00 0.00 46 1017.4
20260502045841 45 0 0.0 0.0 0.00 0.00 0.00 43 1017.4
20260502045033 46 0 0.0 1.0 0.00 0.00 0.00 42 1017.3
20260502044158 46 0 0.0 1.0 0.00 0.00 0.00 41 1017.3
20260502042414 48 270 1.0 2.0 0.00 0.00 0.00 40 1017.1
20260502035934 49 0 0.0 1.0 0.00 0.00 0.00 38 1017.0
20260502035658 49 0 0.0 1.0 0.00 0.00 0.00 38 1017.0
20260502035022 50 22 1.0 2.0 0.00 0.00 0.00 38 1016.9
20260502034820 50 22 1.0 2.0 0.00 0.00 0.00 38 1016.9
20260502033908 51 22 1.0 3.0 0.00 0.00 0.00 39 1016.8
20260502033021 51 0 1.0 2.0 0.00 0.00 0.00 35 1016.6
20260502032223 51 0 1.0 2.0 0.00 0.00 0.00 35 1016.5
20260502030418 52 0 1.0 2.0 0.00 0.00 0.00 35 1016.4
20260502024633 53 338 1.0 2.0 0.00 0.00 0.00 32 1016.1
20260502023828 53 0 1.0 2.0 0.00 0.00 0.00 32 1015.9
20260502022043 54 0 0.0 1.0 0.00 0.00 0.00 32 1015.6
20260502021228 56 0 0.0 1.0 0.00 0.00 0.00 31 1015.5
20260502020827 57 0 0.0 1.0 0.00 0.00 0.00 29 1015.4
20260502020421 57 0 0.0 1.0 0.00 0.00 0.00 29 1015.4
20260502015525 57 0 0.0 2.0 0.00 0.00 0.00 28 1015.4
20260502014658 58 22 1.0 3.0 0.00 0.00 0.00 27 1015.2
20260502013813 58 45 1.0 3.0 0.00 0.00 0.00 26 1015.1
20260502013021 59 22 1.0 3.0 0.00 0.00 0.00 25 1015.0
20260502012933 59 22 1.0 3.0 0.00 0.00 0.00 25 1015.0
20260502012048 59 22 1.0 3.0 0.00 0.00 0.00 24 1014.9
20260502011058 60 22 1.0 2.0 0.00 0.00 0.00 24 1014.8
20260502005418 61 0 0.0 2.0 0.00 0.00 0.00 22 1014.8
20260502004509 61 45 2.0 5.0 0.00 0.00 0.00 23 1014.8
20260502003533 61 0 3.0 5.0 0.00 0.00 0.00 22 1014.8
20260502002653 61 68 4.0 8.0 0.00 0.00 0.00 22 1014.8
20260502001938 61 45 1.0 4.0 0.00 0.00 0.00 21 1014.7
20260502001841 61 45 1.0 4.0 0.00 0.00 0.00 21 1014.7
20260501234353 64 0 6.0 14.0 0.00 0.00 0.00 21 1014.6
20260501233418 64 270 2.0 4.0 0.00 0.00 0.00 21 1014.6
20260501231741 63 270 4.0 10.0 0.00 0.00 0.00 18 1014.6
20260501225939 63 180 2.0 6.0 0.00 0.00 0.00 20 1014.6
20260501225808 63 180 2.0 6.0 0.00 0.00 0.00 20 1014.6
20260501224928 63 45 4.0 10.0 0.00 0.00 0.00 18 1014.7
20260501224018 64 0 3.0 7.0 0.00 0.00 0.00 20 1014.7
20260501223218 63 0 5.0 13.0 0.00 0.00 0.00 20 1014.8
20260501222218 64 135 2.0 5.0 0.00 0.00 0.00 21 1014.9
20260501221228 64 248 3.0 10.0 0.00 0.00 0.00 19 1015.1
20260501220444 65 315 3.0 7.0 0.00 0.00 0.00 20 1015.2
20260501220238 65 315 3.0 7.0 0.00 0.00 0.00 20 1015.2
20260501215413 64 68 6.0 11.0 0.00 0.00 0.00 21 1015.3
20260501214413 65 158 2.0 5.0 0.00 0.00 0.00 21 1015.5
20260501213528 64 225 1.0 4.0 0.00 0.00 0.00 22 1015.5
20260501212728 64 135 2.0 4.0 0.00 0.00 0.00 25 1015.6
20260501211829 64 68 4.0 7.0 0.00 0.00 0.00 22 1015.9
20260501210833 63 292 2.0 6.0 0.00 0.00 0.00 20 1016.1
20260501210001 64 22 5.0 13.0 0.00 0.00 0.00 20 1016.2